KINEIS-4C

Last updated on Mon Sep 21 2026 00:02:54 GMT+0000 (Coordinated Universal Time)

1 63301U 25056B 26263.54357731 .00000914 00000+0 15238-3 0 9990 2 63301 97.9197 25.1438 0004036 37.5906 322.5583 14.72287890 81165
UTC large
Height (km)
Speed (km/s)
/
Latitude / Longitude
Inclination (degrees)
Orbital Period (minutes)
Azimuth
Elevation
Range (km)
Doppler Factor

Next 0 passes for location: London (51.5072 / 0.1276)

No passes found over London.
KINEIS-4C